Weather History for KDNS - June, 2013

Change the Weather History Date:

Wednesday, June 19, 2013

  Actual Average (KOMA) Record (KOMA)
Temperature  
Mean Temperature 72 °F 73 °F  
Max Temperature 84 °F 84 °F 102 °F (1953)
Min Temperature 59 °F 62 °F 47 °F (1976)
Degree Days  
Heating Degree Days 0 0  
Month to date heating degree days 15  
Since 1 June heating degree days 15  
Since 1 July heating degree days 6165  
Cooling Degree Days 6 9  
Month to date cooling degree days 120  
Year to date cooling degree days 202  
Since 1 June cooling degree days 120  
Growing Degree Days 22 (Base 50)    
Moisture  
Dew Point 60 °F    
Average Humidity 66    
Maximum Humidity 94    
Minimum Humidity 42    
Precipitation  
Precipitation 0.00 in 0.13 in 1.62 in (1942)
Month to date precipitation 2.77  
Year to date precipitation 14.05  
Snow  
Snow 0.00 in 0.00 in - ()
Month to date snowfall 0.0  
Since 1 July snowfall 26.4  
Snow Depth -    
Sea Level Pressure  
Sea Level Pressure 29.98 in    
Wind  
Wind Speed 6 mph (SSE)    
Max Wind Speed 18 mph    
Max Gust Speed 26 mph    
Visibility 10 miles    
Events      
T = Trace of Precipitation, MM = Missing Value Source: NWS Daily Summary

Daily Weather History Graph

Daily Weather History Graph

Search for Another Location

Airport or City:

Trip Planner

Search our weather history database for the weather conditions in past years. The results will help you decide how hot, cold, wet, or windy it might be!

Date:

Astronomy

Jun. 19, 2013 Rise Set
Actual Time 5:45 AM CDT 9:00 PM CDT
Civil Twilight 5:11 AM CDT 9:34 PM CDT
Nautical Twilight 4:26 AM CDT 10:19 PM CDT
Astronomical Twilight 3:33 AM CDT 11:12 PM CDT
Moon 4:51 PM CDT (6/19) 2:34 AM CDT (6/19)
Length of Visible Light 16h 23m
Length of Day
15h 14m
Waxing Gibbous, 80% of the Moon is Illuminated
Jun 19
Waxing Gibbous
Jun 23
Full
Jun 29
Last Quarter
Jul 8
New
Jul 15
First Quarter

Hourly Weather History & Observations

Time (CDT) Temp. Heat Index Dew Point Humidity Pressure Visibility Wind Dir Wind Speed Gust Speed Precip Events Conditions
12:15 AM 64.4 °F - 55.4 °F 73% 30.01 in 10.0 mi Calm Calm - N/A   Clear
12:35 AM 64.4 °F - 55.4 °F 73% 30.01 in 10.0 mi Calm Calm - N/A   Clear
12:55 AM 64.4 °F - 55.4 °F 73% 30.01 in 10.0 mi Calm Calm - N/A   Clear
1:15 AM 62.6 °F - 57.2 °F 82% 30.01 in 10.0 mi ENE 4.6 mph - N/A   Clear
1:35 AM 60.8 °F - 57.2 °F 88% 30.01 in 10.0 mi Calm Calm - N/A   Clear
1:55 AM 60.8 °F - 57.2 °F 88% 30.00 in 10.0 mi ENE 4.6 mph - N/A   Clear
2:15 AM 60.8 °F - 57.2 °F 88% 29.99 in 10.0 mi Calm Calm - N/A   Clear
2:35 AM 62.6 °F - 57.2 °F 82% 30.00 in 10.0 mi Calm Calm - N/A   Clear
2:55 AM 60.8 °F - 57.2 °F 88% 30.00 in 10.0 mi Calm Calm - N/A   Clear
3:15 AM 60.8 °F - 57.2 °F 88% 30.00 in 10.0 mi Calm Calm - N/A   Clear
3:35 AM 60.8 °F - 57.2 °F 88% 29.99 in 10.0 mi East 4.6 mph - N/A   Clear
3:55 AM 60.8 °F - 57.2 °F 88% 29.98 in 10.0 mi East 5.8 mph - N/A   Clear
4:15 AM 60.8 °F - 57.2 °F 88% 29.99 in 10.0 mi East 4.6 mph - N/A   Clear
4:35 AM 59.0 °F - 57.2 °F 94% 30.00 in 10.0 mi Calm Calm - N/A   Clear
4:55 AM 59.0 °F - 57.2 °F 94% 30.00 in 10.0 mi Calm Calm - N/A   Clear
5:15 AM 59.0 °F - 57.2 °F 94% 30.01 in 10.0 mi Calm Calm - N/A   Partly Cloudy
5:35 AM 59.0 °F - 57.2 °F 94% 30.00 in 10.0 mi Calm Calm - N/A   Mostly Cloudy
5:55 AM 60.8 °F - 57.2 °F 88% 30.01 in 10.0 mi Calm Calm - N/A   Mostly Cloudy
6:15 AM 62.6 °F - 59.0 °F 88% 30.02 in 10.0 mi Calm Calm - N/A   Mostly Cloudy
6:35 AM 62.6 °F - 59.0 °F 88% 30.03 in 10.0 mi Calm Calm - N/A   Scattered Clouds
6:55 AM 64.4 °F - 60.8 °F 88% 30.03 in 10.0 mi Calm Calm - N/A   Partly Cloudy
7:15 AM 64.4 °F - 62.6 °F 94% 30.03 in 10.0 mi Calm Calm - N/A   Partly Cloudy
7:35 AM 66.2 °F - 60.8 °F 83% 30.03 in 10.0 mi Calm Calm - N/A   Scattered Clouds
7:55 AM 68.0 °F - 62.6 °F 83% 30.03 in 10.0 mi Calm Calm - N/A   Mostly Cloudy
8:15 AM 68.0 °F - 62.6 °F 83% 30.03 in 10.0 mi Calm Calm - N/A   Mostly Cloudy
8:35 AM 71.6 °F - 62.6 °F 73% 30.03 in 10.0 mi Calm Calm - N/A   Mostly Cloudy
8:55 AM 73.4 °F - 60.8 °F 65% 30.03 in 10.0 mi SSE 5.8 mph - N/A   Partly Cloudy
9:15 AM 75.2 °F - 60.8 °F 61% 30.03 in 10.0 mi SSE 8.1 mph - N/A   Clear
9:55 AM 75.2 °F - 59.0 °F 57% 30.02 in 10.0 mi South 13.8 mph - N/A   Scattered Clouds
10:35 AM 77.0 °F - 60.8 °F 57% 30.01 in 10.0 mi SSE 11.5 mph 17.3 mph N/A   Clear
10:55 AM 78.8 °F - 60.8 °F 54% 30.01 in 10.0 mi SE 11.5 mph - N/A   Clear
11:15 AM 78.8 °F - 60.8 °F 54% 30.01 in 10.0 mi SSE 15.0 mph 20.7 mph N/A   Clear
11:35 AM 78.8 °F - 60.8 °F 54% 30.01 in 10.0 mi SSE 15.0 mph - N/A   Clear
11:55 AM 78.8 °F - 60.8 °F 54% 30.00 in 10.0 mi SSE 12.7 mph 20.7 mph N/A   Clear
12:15 PM 80.6 °F 81.1 °F 59.0 °F 48% 30.00 in 10.0 mi SSE 13.8 mph 24.2 mph N/A   Clear
12:35 PM 82.4 °F 82.9 °F 60.8 °F 48% 30.00 in 10.0 mi South 11.5 mph 24.2 mph N/A   Partly Cloudy
12:55 PM 82.4 °F 82.9 °F 60.8 °F 48% 29.99 in 10.0 mi South 16.1 mph 26.5 mph N/A   Mostly Cloudy
1:15 PM 82.4 °F 82.0 °F 57.2 °F 42% 29.99 in 10.0 mi South 13.8 mph - N/A   Scattered Clouds
1:35 PM 82.4 °F 82.9 °F 60.8 °F 48% 29.98 in 10.0 mi South 11.5 mph 19.6 mph N/A   Scattered Clouds
1:55 PM 82.4 °F 82.9 °F 60.8 °F 48% 29.98 in 10.0 mi SSE 11.5 mph 23.0 mph N/A   Scattered Clouds
2:15 PM 84.2 °F 84.4 °F 60.8 °F 45% 29.97 in 10.0 mi SSE 12.7 mph 24.2 mph N/A   Partly Cloudy
2:35 PM 84.2 °F 84.4 °F 60.8 °F 45% 29.97 in 10.0 mi South 18.4 mph - N/A   Clear
2:55 PM 84.2 °F 84.4 °F 60.8 °F 45% 29.96 in 10.0 mi SSE 15.0 mph 24.2 mph N/A   Partly Cloudy
3:15 PM 84.2 °F 83.8 °F 59.0 °F 42% 29.96 in 10.0 mi South 15.0 mph 24.2 mph N/A   Partly Cloudy
3:35 PM 84.2 °F 84.4 °F 60.8 °F 45% 29.96 in 10.0 mi SSE 18.4 mph - N/A   Partly Cloudy
3:55 PM 82.4 °F 82.9 °F 60.8 °F 48% 29.96 in 10.0 mi South 16.1 mph 26.5 mph N/A   Partly Cloudy
4:15 PM 84.2 °F 83.8 °F 59.0 °F 42% 29.96 in 10.0 mi South 16.1 mph 21.9 mph N/A   Clear
4:35 PM 84.2 °F 84.4 °F 60.8 °F 45% 29.95 in 10.0 mi SSE 16.1 mph 25.3 mph N/A   Clear
4:55 PM 84.2 °F 84.4 °F 60.8 °F 45% 29.94 in 10.0 mi SSE 17.3 mph 26.5 mph N/A   Clear
5:15 PM 84.2 °F 84.4 °F 60.8 °F 45% 29.94 in 10.0 mi South 17.3 mph 26.5 mph N/A   Partly Cloudy
5:35 PM 84.2 °F 84.4 °F 60.8 °F 45% 29.94 in 10.0 mi South 18.4 mph 25.3 mph N/A   Partly Cloudy
5:55 PM 84.2 °F 84.4 °F 60.8 °F 45% 29.93 in 10.0 mi South 13.8 mph 23.0 mph N/A   Clear
6:15 PM 84.2 °F 84.4 °F 60.8 °F 45% 29.93 in 10.0 mi South 15.0 mph 20.7 mph N/A   Clear
6:35 PM 82.4 °F 83.4 °F 62.6 °F 51% 29.93 in 10.0 mi South 15.0 mph 20.7 mph N/A   Partly Cloudy
6:55 PM 82.4 °F 83.4 °F 62.6 °F 51% 29.93 in 10.0 mi South 13.8 mph 23.0 mph N/A   Clear
7:15 PM 82.4 °F 83.4 °F 62.6 °F 51% 29.93 in 10.0 mi South 15.0 mph 21.9 mph N/A   Clear
7:35 PM 82.4 °F 83.4 °F 62.6 °F 51% 29.93 in 10.0 mi SSE 15.0 mph 20.7 mph N/A   Clear
7:55 PM 80.6 °F 81.8 °F 62.6 °F 54% 29.93 in 10.0 mi SSE 15.0 mph 20.7 mph N/A   Clear
8:15 PM 80.6 °F 81.8 °F 62.6 °F 54% 29.93 in 10.0 mi SSE 11.5 mph 18.4 mph N/A   Clear
8:35 PM 78.8 °F - 62.6 °F 57% 29.93 in 10.0 mi SSE 10.4 mph - N/A   Clear
8:55 PM 78.8 °F - 62.6 °F 57% 29.93 in 10.0 mi SSE 10.4 mph 16.1 mph N/A   Clear
9:15 PM 77.0 °F - 62.6 °F 61% 29.94 in 10.0 mi SSE 11.5 mph - N/A   Clear
9:35 PM 77.0 °F - 62.6 °F 61% 29.94 in 10.0 mi SSE 11.5 mph 17.3 mph N/A   Clear
9:55 PM 75.2 °F - 64.4 °F 69% 29.95 in 10.0 mi SSE 10.4 mph 16.1 mph N/A   Clear
10:15 PM 75.2 °F - 64.4 °F 69% 29.96 in 10.0 mi SSE 10.4 mph - N/A   Clear
10:35 PM 75.2 °F - 64.4 °F 69% 29.97 in 10.0 mi SE 8.1 mph - N/A   Clear
10:55 PM 73.4 °F - 64.4 °F 73% 29.97 in 10.0 mi SE 10.4 mph - N/A   Clear
11:15 PM 73.4 °F - 64.4 °F 73% 29.97 in 10.0 mi SSE 9.2 mph - N/A   Clear
11:35 PM 73.4 °F - 64.4 °F 73% 29.97 in 10.0 mi SSE 12.7 mph - N/A   Clear
11:55 PM 73.4 °F - 64.4 °F 73% 29.97 in 10.0 mi SSE 12.7 mph 18.4 mph N/A   Clear